K9MR Weather Reports


Display with metric or nautical units.
time (UTC)temp
F
wind
direction
speed
MPH
gust
MPH
rain 1hr
in
rain 24hr
in
rain mn
in
humidity
%
barometer
mb
20221204150518 35 134 2.0 5.0 0.00 0.17 0.00 53 996.9
20221204145518 34 165 2.0 6.0 0.00 0.17 0.00 52 997.1
20221204144518 34 97 2.0 5.0 0.00 0.18 0.00 54 997.2
20221204143518 33 88 2.0 6.0 0.00 0.18 0.00 56 997.2
20221204142518 33 95 1.0 3.0 0.00 0.19 0.00 58 997.2
20221204141518 32 252 1.0 4.0 0.00 0.20 0.00 60 997.2
20221204140521 32 48 2.0 4.0 0.00 0.20 0.00 61 997.0
20221204135519 32 184 1.0 3.0 0.00 0.20 0.00 63 997.0
20221204134519 32 105 2.0 4.0 0.00 0.20 0.00 63 997.1
20221204133519 32 191 1.0 2.0 0.00 0.20 0.00 67 997.1
20221204132519 32 95 1.0 3.0 0.00 0.20 0.00 62 996.9
20221204131517 32 74 1.0 3.0 0.00 0.20 0.00 66 996.9
20221204130519 32 102 1.0 4.0 0.00 0.20 0.00 65 996.8
20221204125520 32 94 1.0 3.0 0.00 0.20 0.00 62 996.6
20221204124520 32 107 2.0 4.0 0.00 0.20 0.00 62 996.5
20221204123517 32 69 2.0 7.0 0.00 0.21 0.00 63 996.5
20221204122517 32 273 2.0 7.0 0.00 0.21 0.00 60 996.2
20221204121517 32 130 2.0 5.0 0.00 0.21 0.00 61 996.1
20221204120517 32 100 2.0 5.0 0.00 0.21 0.00 62 996.0
20221204115518 32 176 2.0 9.0 0.00 0.21 0.00 64 996.0
20221204114520 32 152 1.0 5.0 0.00 0.21 0.00 61 996.0
20221204113518 32 145 2.0 7.0 0.00 0.21 0.00 61 996.0
20221204112518 32 174 3.0 9.0 0.00 0.21 0.00 63 995.9
20221204111518 32 164 3.0 5.0 0.00 0.21 0.00 63 995.9
20221204110518 32 156 1.0 3.0 0.00 0.21 0.00 63 995.7
20221204105519 33 100 3.0 8.0 0.00 0.21 0.00 61 995.5
20221204104519 33 134 3.0 8.0 0.00 0.21 0.00 60 995.5
20221204103519 33 123 2.0 4.0 0.00 0.21 0.00 61 995.5
20221204102519 33 167 2.0 4.0 0.00 0.21 0.00 60 995.6
20221204101519 33 79 3.0 10.0 0.00 0.21 0.00 60 995.6
20221204100520 33 91 2.0 4.0 0.00 0.21 0.00 61 995.5
20221204095519 33 208 2.0 5.0 0.00 0.21 0.00 60 995.4
20221204094517 33 31 1.0 4.0 0.00 0.21 0.00 62 995.2
20221204093517 33 70 2.0 8.0 0.00 0.21 0.00 62 995.2
20221204092517 33 118 2.0 7.0 0.00 0.21 0.00 62 995.2
20221204091520 33 69 2.0 5.0 0.00 0.21 0.00 67 995.4
20221204090521 33 54 2.0 5.0 0.00 0.21 0.00 62 995.3
20221204085518 34 37 1.0 3.0 0.00 0.21 0.00 65 995.0
20221204084518 34 145 2.0 5.0 0.00 0.21 0.00 64 994.7
20221204083518 34 158 2.0 7.0 0.00 0.21 0.00 61 994.6
20221204082518 34 207 2.0 5.0 0.00 0.21 0.00 69 994.8
20221204081518 34 135 2.0 4.0 0.00 0.21 0.00 68 994.8
20221204080519 34 149 1.0 4.0 0.00 0.21 0.00 65 994.7
20221204075518 34 97 2.0 5.0 0.00 0.21 0.00 68 994.8
20221204074519 34 94 1.0 4.0 0.00 0.21 0.00 66 994.7
20221204073518 35 228 1.0 2.0 0.00 0.21 0.00 64 994.5
20221204072519 35 160 3.0 6.0 0.00 0.21 0.00 67 994.5
20221204071520 35 147 2.0 6.0 0.00 0.21 0.00 65 994.3
20221204070517 35 170 2.0 7.0 0.00 0.21 0.00 65 994.3
20221204065517 35 118 3.0 6.0 0.00 0.21 0.00 66 994.1
20221204064520 35 115 3.0 9.0 0.00 0.21 0.00 67 994.0
20221204063520 36 214 3.0 8.0 0.00 0.21 0.00 64 993.9
20221204062520 36 66 4.0 9.0 0.00 0.21 0.00 66 993.7
20221204061517 36 241 2.0 7.0 0.00 0.21 0.00 68 993.6
20221204060517 36 178 1.0 3.0 0.00 0.21 0.00 68 993.6
20221204055518 36 184 2.0 4.0 0.00 0.21 0.00 66 993.6
20221204054518 36 168 2.0 6.0 0.00 0.21 0.00 67 993.5
20221204053518 36 194 2.0 7.0 0.00 0.21 0.00 73 993.3
20221204052521 36 199 2.0 5.0 0.00 0.21 0.00 72 993.3
20221204051519 36 151 1.0 4.0 0.00 0.21 0.00 73 993.4
20221204050518 37 227 2.0 7.0 0.00 0.21 0.00 70 993.4
20221204045519 37 215 2.0 4.0 0.00 0.21 0.21 74 993.3
20221204044519 37 140 3.0 7.0 0.00 0.21 0.21 67 993.1
20221204043519 37 208 1.0 4.0 0.00 0.21 0.21 72 993.1
20221204042520 37 79 1.0 4.0 0.00 0.21 0.21 70 992.9
20221204041520 37 269 2.0 8.0 0.00 0.21 0.21 72 992.9
20221204040520 37 198 2.0 5.0 0.00 0.21 0.21 73 993.0
20221204035519 37 354 1.0 2.0 0.00 0.21 0.21 75 993.1
20221204034520 38 227 2.0 4.0 0.00 0.21 0.21 72 992.8
20221204033517 38 191 1.0 3.0 0.00 0.21 0.21 72 992.6
20221204032517 38 175 2.0 6.0 0.00 0.21 0.21 75 992.5
20221204031517 39 143 3.0 6.0 0.00 0.21 0.21 71 992.4
20221204030521 39 89 1.0 4.0 0.00 0.21 0.21 70 992.1
20221204025520 39 61 2.0 7.0 0.00 0.21 0.21 71 992.0
20221204024521 39 212 1.0 5.0 0.00 0.21 0.21 73 992.1
20221204023518 39 165 2.0 5.0 0.00 0.21 0.21 71 991.9
20221204022518 39 136 3.0 9.0 0.00 0.21 0.21 74 991.8
20221204021519 39 186 3.0 7.0 0.00 0.21 0.21 74 991.7
20221204020518 40 76 2.0 5.0 0.00 0.21 0.21 71 991.7
20221204015519 40 172 4.0 10.0 0.00 0.21 0.21 75 991.8
20221204014519 40 193 4.0 9.0 0.00 0.21 0.21 73 991.5
20221204013519 40 206 4.0 10.0 0.00 0.21 0.21 77 991.4
20221204012519 40 152 4.0 8.0 0.00 0.21 0.21 76 991.3
20221204011519 40 205 3.0 8.0 0.00 0.21 0.21 80 991.4
20221204010520 40 191 3.0 9.0 0.00 0.21 0.21 80 991.2
20221204005520 40 234 2.0 6.0 0.00 0.21 0.21 81 991.2
20221204004517 40 189 2.0 6.0 0.00 0.21 0.21 81 991.0
20221204003517 40 231 3.0 6.0 0.00 0.21 0.21 82 990.8
20221204002520 40 253 2.0 8.0 0.00 0.21 0.21 81 990.8
20221204001520 40 228 4.0 9.0 0.00 0.21 0.21 80 990.5
20221204000517 40 94 3.0 10.0 0.00 0.21 0.21 80 990.3
20221203235517 41 109 2.0 8.0 0.00 0.21 0.21 80 990.3
20221203234518 42 229 3.0 6.0 0.00 0.21 0.21 81 989.8
20221203233518 43 188 3.0 7.0 0.00 0.21 0.21 77 989.4
20221203232518 43 136 4.0 8.0 0.00 0.21 0.21 81 989.0
20221203231522 44 190 2.0 6.0 0.00 0.21 0.21 82 988.7
20221203230518 45 61 2.0 5.0 0.00 0.21 0.21 79 988.3
20221203225518 46 119 3.0 10.0 0.01 0.21 0.21 88 987.9
20221203224518 47 157 2.0 3.0 0.01 0.21 0.21 89 987.4
20221203223519 48 130 2.0 6.0 0.01 0.21 0.21 90 987.3
20221203222519 49 221 2.0 7.0 0.00 0.21 0.21 91 987.0
20221203221519 50 215 2.0 9.0 0.00 0.21 0.21 94 986.5
20221203220516 49 164 1.0 6.0 0.01 0.20 0.20 95 984.7
20221203215519 49 352 1.0 4.0 0.01 0.20 0.20 95 984.2
20221203214520 49 81 1.0 4.0 0.01 0.20 0.20 95 983.8
20221203213520 49 339 0.0 2.0 0.01 0.20 0.20 95 983.9
20221203212520 49 24 0.0 3.0 0.01 0.20 0.20 95 983.9
20221203211517 49 80 0.0 2.0 0.01 0.20 0.20 95 984.1
20221203210518 49 2 1.0 3.0 0.00 0.20 0.20 95 984.1
20221203205518 49 29 1.0 4.0 0.00 0.19 0.19 95 984.2
20221203204518 49 4 1.0 2.0 0.00 0.19 0.19 95 984.6
20221203203518 49 10 1.0 3.0 0.00 0.19 0.19 95 984.2
20221203202518 49 345 1.0 3.0 0.00 0.19 0.19 96 984.4
20221203201518 49 349 0.0 3.0 0.00 0.19 0.19 96 984.4
20221203200518 49 359 0.0 2.0 0.00 0.19 0.19 96 984.6
20221203195519 49 340 1.0 3.0 0.00 0.19 0.19 96 984.9
20221203194519 49 328 1.0 4.0 0.00 0.19 0.19 96 985.1
20221203193519 49 22 1.0 6.0 0.00 0.19 0.19 96 985.2
20221203192519 49 1 1.0 4.0 0.00 0.19 0.19 96 985.3
20221203191519 49 30 1.0 4.0 0.00 0.19 0.19 96 985.3
20221203190520 48 46 1.0 5.0 0.00 0.19 0.19 96 985.4
20221203185520 48 69 1.0 5.0 0.00 0.19 0.19 96 985.1
20221203184520 48 24 1.0 4.0 0.01 0.19 0.19 96 985.2
20221203183520 48 7 2.0 5.0 0.02 0.19 0.19 96 985.4
20221203182517 48 44 2.0 3.0 0.03 0.19 0.19 96 985.7
20221203181517 48 25 1.0 3.0 0.04 0.19 0.19 96 985.9
20221203180518 47 16 2.0 5.0 0.05 0.19 0.19 96 986.0
20221203175521 47 20 2.0 3.0 0.05 0.19 0.19 96 986.2
20221203174518 47 25 1.0 4.0 0.05 0.19 0.19 96 986.5
20221203173518 47 1 1.0 3.0 0.04 0.17 0.17 96 986.9
20221203172518 47 15 2.0 4.0 0.03 0.16 0.16 96 987.0
20221203171518 46 3 2.0 5.0 0.03 0.15 0.15 96 987.3
20221203170519 46 1 2.0 5.0 0.03 0.14 0.14 96 987.8
20221203165519 46 20 2.0 5.0 0.05 0.14 0.14 96 988.0
20221203164516 46 10 2.0 6.0 0.05 0.14 0.14 96 988.2
20221203163519 45 339 2.0 7.0 0.06 0.13 0.13 96 988.2
20221203162519 45 122 1.0 5.0 0.07 0.13 0.13 96 988.4
20221203161519 44 258 1.0 3.0 0.07 0.12 0.12 96 988.9
20221203160520 44 328 1.0 4.0 0.07 0.11 0.11 96 989.3
20221203155517 44 339 1.0 3.0 0.05 0.09 0.09 96 989.8
20221203154517 43 356 2.0 5.0 0.05 0.08 0.08 96 990.1
20221203153520 43 352 1.0 4.0 0.04 0.07 0.07 96 990.7
20221203152520 43 349 2.0 4.0 0.04 0.06 0.06 96 991.0
20221203151520 42 6 1.0 4.0 0.04 0.05 0.05 96 991.4